TimeCDT,TemperatureF,Dew PointF,Humidity,Sea Level PressureIn,VisibilityMPH,Wind Direction,Wind SpeedMPH,Gust SpeedMPH,PrecipitationIn,Events,Conditions,WindDirDegrees,DateUTC
12:00 AM,59.0,59.0,100,29.93,3.0,NE,4.6,-,0.02,Rain-Thunderstorm,Thunderstorms and Rain,40,2013-04-03 05:00:00
12:53 AM,59.0,59.0,100,29.88,6.0,ENE,9.2,-,0.06,Rain-Thunderstorm,Thunderstorms and Rain,60,2013-04-03 05:53:00
1:15 AM,59.0,57.2,94,29.84,8.0,NE,15.0,21.9,0.03,Rain-Thunderstorm,Light Rain,50,2013-04-03 06:15:00
1:29 AM,59.0,57.2,94,29.81,10.0,ENE,13.8,23.0,0.03,Rain,Light Rain,70,2013-04-03 06:29:00
1:53 AM,59.0,57.9,96,29.72,10.0,ENE,18.4,28.8,0.03,,Scattered Clouds,60,2013-04-03 06:53:00
2:53 AM,60.1,57.9,93,29.85,10.0,WNW,8.1,21.9,N/A,,Scattered Clouds,300,2013-04-03 07:53:00
3:53 AM,57.9,55.9,93,29.84,10.0,NNE,3.5,-,N/A,,Clear,20,2013-04-03 08:53:00
4:53 AM,57.0,55.9,96,29.85,10.0,North,6.9,-,N/A,,Clear,350,2013-04-03 09:53:00
5:53 AM,57.9,55.0,90,29.88,10.0,North,9.2,-,N/A,,Clear,360,2013-04-03 10:53:00
6:53 AM,57.9,54.0,87,29.89,10.0,North,10.4,-,N/A,,Clear,10,2013-04-03 11:53:00
7:41 AM,57.2,53.6,88,29.93,10.0,NNE,8.1,-,N/A,,Mostly Cloudy,20,2013-04-03 12:41:00
7:53 AM,57.9,54.0,87,29.93,10.0,NNE,9.2,-,N/A,,Overcast,20,2013-04-03 12:53:00
8:53 AM,59.0,55.0,87,29.95,10.0,North,12.7,-,N/A,,Overcast,10,2013-04-03 13:53:00
9:53 AM,57.9,53.1,84,29.98,10.0,North,13.8,21.9,0.00,Rain,Light Rain,10,2013-04-03 14:53:00
10:53 AM,55.9,51.1,84,29.97,10.0,NNE,20.7,31.1,0.00,,Overcast,20,2013-04-03 15:53:00
11:26 AM,55.4,51.8,88,29.97,10.0,ENE,6.9,17.3,N/A,Thunderstorm,Overcast,70,2013-04-03 16:26:00
11:36 AM,55.4,51.8,88,29.98,10.0,ENE,10.4,-,N/A,Thunderstorm,Overcast,60,2013-04-03 16:36:00
11:53 AM,55.9,52.0,87,29.99,6.0,ENE,12.7,28.8,0.04,Rain-Thunderstorm,Thunderstorms and Rain,60,2013-04-03 16:53:00
12:00 PM,53.6,51.8,94,30.02,1.8,ENE,10.4,18.4,0.16,Rain-Thunderstorm,Heavy Thunderstorms and Rain,60,2013-04-03 17:00:00
12:14 PM,53.6,53.6,100,29.94,3.0,ENE,13.8,24.2,0.29,Rain-Thunderstorm,Thunderstorms and Rain,70,2013-04-03 17:14:00
12:41 PM,55.4,53.6,94,30.01,4.0,WNW,8.1,-,0.33,Rain-Thunderstorm,Thunderstorms and Rain,300,2013-04-03 17:41:00
12:53 PM,55.0,54.0,96,30.02,6.0,WNW,10.4,-,0.33,Rain-Thunderstorm,Light Thunderstorms and Rain,300,2013-04-03 17:53:00
1:00 PM,55.4,53.6,94,30.01,7.0,NNW,10.4,18.4,0.00,Rain-Thunderstorm,Light Thunderstorms and Rain,330,2013-04-03 18:00:00
1:53 PM,55.0,53.1,93,29.99,10.0,North,6.9,-,0.06,Rain-Thunderstorm,Light Thunderstorms and Rain,350,2013-04-03 18:53:00
2:11 PM,53.6,51.8,94,29.99,10.0,North,12.7,20.7,0.00,Thunderstorm,Thunderstorm,360,2013-04-03 19:11:00
2:32 PM,55.4,51.8,88,29.99,10.0,North,13.8,20.7,0.00,Thunderstorm,Thunderstorm,350,2013-04-03 19:32:00
2:53 PM,55.0,51.1,86,29.98,10.0,North,8.1,-,0.00,Rain-Thunderstorm,Light Thunderstorms and Rain,10,2013-04-03 19:53:00
3:26 PM,55.4,53.6,94,29.99,10.0,North,5.8,-,0.01,Rain-Thunderstorm,Light Thunderstorms and Rain,350,2013-04-03 20:26:00
3:44 PM,53.6,51.8,94,30.02,10.0,NNW,6.9,-,0.01,Rain-Thunderstorm,Light Thunderstorms and Rain,340,2013-04-03 20:44:00
3:53 PM,54.0,51.1,90,30.02,7.0,NNW,3.5,-,0.02,Rain-Thunderstorm,Light Thunderstorms and Rain,330,2013-04-03 20:53:00
3:58 PM,53.6,51.8,94,30.01,1.8,North,5.8,-,0.06,Rain-Thunderstorm,Heavy Thunderstorms and Rain,350,2013-04-03 20:58:00
4:07 PM,53.6,51.8,94,30.00,3.0,NNE,10.4,-,0.07,Rain-Thunderstorm,Light Thunderstorms and Rain,20,2013-04-03 21:07:00
4:53 PM,55.0,53.1,93,30.01,10.0,North,8.1,-,0.08,Rain-Thunderstorm,Light Thunderstorms and Rain,360,2013-04-03 21:53:00
5:53 PM,55.0,51.1,86,30.00,10.0,North,9.2,-,0.00,Thunderstorm,Thunderstorm,10,2013-04-03 22:53:00
6:01 PM,53.6,50.0,88,30.01,10.0,North,9.2,-,N/A,,Overcast,350,2013-04-03 23:01:00
6:53 PM,55.0,50.0,83,30.02,10.0,North,8.1,-,N/A,,Overcast,360,2013-04-03 23:53:00
7:53 PM,53.1,48.0,83,30.04,10.0,North,12.7,19.6,N/A,,Overcast,360,2013-04-04 00:53:00
8:53 PM,53.1,46.9,80,30.08,10.0,NNE,9.2,-,N/A,,Overcast,20,2013-04-04 01:53:00
9:53 PM,52.0,46.9,83,30.11,10.0,North,8.1,-,N/A,,Overcast,360,2013-04-04 02:53:00
10:12 PM,51.8,46.4,82,30.11,10.0,North,8.1,-,N/A,,Overcast,10,2013-04-04 03:12:00
10:53 PM,52.0,46.9,83,30.12,10.0,North,5.8,-,N/A,,Overcast,360,2013-04-04 03:53:00
11:53 PM,51.1,46.0,83,30.13,10.0,NNE,4.6,-,N/A,,Overcast,30,2013-04-04 04:53:00